TimeAKDT,TemperatureF,Dew PointF,Humidity,Sea Level PressureIn,VisibilityMPH,Wind Direction,Wind SpeedMPH,Gust SpeedMPH,PrecipitationIn,Events,Conditions,WindDirDegrees,DateUTC
12:53 AM,55.0,46.9,74,30.12,10.0,ENE,6.9,-,N/A,,Clear,60,2013-07-23 08:53:00
1:53 AM,54.0,45.0,72,30.12,10.0,ENE,6.9,-,N/A,,Clear,60,2013-07-23 09:53:00
2:53 AM,53.1,45.0,74,30.12,10.0,ENE,5.8,-,N/A,,Clear,60,2013-07-23 10:53:00
3:53 AM,54.0,44.1,69,30.12,10.0,NE,3.5,-,N/A,,Clear,40,2013-07-23 11:53:00
4:53 AM,54.0,45.0,72,30.11,10.0,NE,4.6,-,N/A,,Clear,50,2013-07-23 12:53:00
5:53 AM,55.9,46.0,69,30.11,10.0,Calm,Calm,-,N/A,,Mostly Cloudy,0,2013-07-23 13:53:00
6:53 AM,55.0,46.0,72,30.11,10.0,Calm,Calm,-,N/A,,Mostly Cloudy,0,2013-07-23 14:53:00
7:53 AM,59.0,48.9,69,30.11,10.0,Calm,Calm,-,N/A,,Mostly Cloudy,0,2013-07-23 15:53:00
8:53 AM,60.1,48.9,67,30.12,10.0,Calm,Calm,-,N/A,,Mostly Cloudy,0,2013-07-23 16:53:00
9:53 AM,64.9,48.9,56,30.11,10.0,ESE,3.5,-,N/A,,Mostly Cloudy,120,2013-07-23 17:53:00
10:53 AM,70.0,48.9,47,30.10,10.0,NE,6.9,-,N/A,,Mostly Cloudy,50,2013-07-23 18:53:00
11:53 AM,72.0,48.0,43,30.09,10.0,SSE,4.6,-,N/A,,Mostly Cloudy,150,2013-07-23 19:53:00
12:53 PM,68.0,48.0,49,30.09,10.0,WSW,10.4,-,N/A,,Mostly Cloudy,250,2013-07-23 20:53:00
1:53 PM,66.9,50.0,54,30.09,10.0,WSW,11.5,-,N/A,,Clear,240,2013-07-23 21:53:00
2:53 PM,64.9,52.0,63,30.09,10.0,SW,9.2,-,N/A,,Clear,220,2013-07-23 22:53:00
3:53 PM,63.0,51.1,65,30.10,10.0,SW,6.9,-,N/A,,Clear,220,2013-07-23 23:53:00
4:53 PM,60.1,52.0,75,30.09,10.0,SW,6.9,-,N/A,,Clear,220,2013-07-24 00:53:00
5:53 PM,57.9,51.1,78,30.09,10.0,WSW,4.6,-,N/A,,Clear,240,2013-07-24 01:53:00
6:53 PM,59.0,51.1,75,30.09,10.0,SW,3.5,-,N/A,,Clear,220,2013-07-24 02:53:00
7:53 PM,55.9,50.0,80,30.09,10.0,SW,3.5,-,N/A,,Clear,220,2013-07-24 03:53:00
8:53 PM,61.0,52.0,72,30.08,10.0,Calm,Calm,-,N/A,,Clear,0,2013-07-24 04:53:00
9:53 PM,61.0,53.1,75,30.08,10.0,ENE,4.6,-,N/A,,Clear,70,2013-07-24 05:53:00
10:53 PM,57.0,52.0,83,30.08,10.0,NE,4.6,-,N/A,,Clear,50,2013-07-24 06:53:00
11:53 PM,55.0,51.1,86,30.08,10.0,NNE,3.5,-,N/A,,Clear,30,2013-07-24 07:53:00